Location: Litvinovka
(48.6667°N, 34.3500°E)
Time: 09:23:22
(UTC+00:00)

CSL-04 Rocket - Pass Details

Date: 18 September 2020
Orbit: 806 x 860 km, 98.9° (Epoch: 25 October)

Event Time Altitude Azimuth Distance (km) Brightness Sun altitude
Rises 16:44:22 0° 170° (S) 3,354 6.6 -10.0°
Reaches altitude 10° 16:46:42 10° 172° (S) 2,433 5.9 -10.3°
Maximum altitude 16:52:05 71° 257° (WSW) 892 4.0 -11.2°
Drops below altitude 10° 16:57:36 10° 341° (NNW) 2,485 6.6 -12.1°
Sets 17:00:01 0° 344° (NNW) 3,432 7.4 -12.5°
